Weather History for KMEM - January, 2013

Change the Weather History Date:

Saturday, January 12, 2013

  Actual Average Record
Temperature  
Mean Temperature 69 °F 41 °F  
Max Temperature 73 °F 49 °F 79 °F (1890)
Min Temperature 64 °F 32 °F -8 °F (1918)
Degree Days  
Heating Degree Days 0 24  
Month to date heating degree days 228 288  
Since 1 July heating degree days 1255 1452  
Cooling Degree Days 4 0  
Month to date cooling degree days 4 0  
Year to date cooling degree days 4 0  
Growing Degree Days 16 (Base 50)    
Moisture  
Dew Point 64 °F    
Average Humidity 87    
Maximum Humidity 100    
Minimum Humidity 73    
Precipitation  
Precipitation 0.26 in 0.11 in 2.39 in (1989)
Month to date precipitation 2.71 1.59  
Year to date precipitation 2.71 1.59  
Snow  
Snow 0.00 in 0.10 in 4.50 in (1982)
Month to date snowfall 0.0 0.7  
Since 1 July snowfall 0.9 0.9  
Snow Depth 0.00 in    
Sea Level Pressure  
Sea Level Pressure 29.87 in    
Wind  
Wind Speed 13 mph (South)    
Max Wind Speed 22 mph    
Max Gust Speed 30 mph    
Visibility 6 miles    
Events Rain , Thunderstorm    
T = Trace of Precipitation, MM = Missing Value Source: NWS Daily Summary

Daily Weather History Graph

Daily Weather History Graph

Search for Another Location

Airport or City:

Trip Planner

Search our weather history database for the weather conditions in past years. The results will help you decide how hot, cold, wet, or windy it might be!

Date:

Astronomy

Jan. 12, 2013 Rise Set
Actual Time 7:08 AM CST 5:08 PM CST
Civil Twilight 6:40 AM CST 5:36 PM CST
Nautical Twilight 6:09 AM CST 6:07 PM CST
Astronomical Twilight 5:38 AM CST 6:38 PM CST
Moon 7:30 AM CST (1/12) 6:33 PM CST (1/12)
Length of Visible Light 10h 56m
Length of Day
10h 00m
New Moon, 1% of the Moon is Illuminated
Jan 12
New Moon
Jan 18
First Quarter
Jan 26
Full
Feb 3
Last Quarter
Feb 10
New

Hourly Weather History & Observations

Time (CST) Temp. Dew Point Humidity Pressure Visibility Wind Dir Wind Speed Gust Speed Precip Events Conditions
12:54 AM 64.9 °F 62.1 °F 90% 29.95 in 9.0 mi South 13.8 mph - N/A   Overcast
1:54 AM 66.0 °F 63.0 °F 90% 29.96 in 7.0 mi South 9.2 mph - N/A   Overcast
2:54 AM 66.0 °F 63.0 °F 90% 29.95 in 7.0 mi South 6.9 mph - N/A   Overcast
3:45 AM 66.2 °F 64.4 °F 94% 29.94 in 2.0 mi South 5.8 mph - N/A   Overcast
3:54 AM 64.9 °F 64.0 °F 97% 29.94 in 2.0 mi South 6.9 mph - N/A   Overcast
4:45 AM 66.2 °F 64.4 °F 94% 29.93 in 1.0 mi South 8.1 mph - N/A   Overcast
4:54 AM 66.9 °F 64.9 °F 93% 29.93 in 1.0 mi South 9.2 mph - N/A   Overcast
5:42 AM 66.2 °F 64.4 °F 94% 29.94 in 2.0 mi South 8.1 mph - N/A   Overcast
5:54 AM 66.0 °F 64.9 °F 96% 29.94 in 2.0 mi South 5.8 mph - N/A   Overcast
6:28 AM 66.2 °F 64.4 °F 94% 29.95 in 4.0 mi South 5.8 mph - 0.00 in   Overcast
6:51 AM 66.2 °F 64.4 °F 94% 29.95 in 4.0 mi South 3.5 mph - 0.00 in Rain Light Rain
6:54 AM 66.0 °F 64.9 °F 96% 29.95 in 3.0 mi SSW 3.5 mph - 0.00 in Rain Light Rain
7:43 AM 66.2 °F 64.4 °F 94% 29.95 in 4.0 mi SSE 5.8 mph - 0.00 in Rain Light Rain
7:52 AM 66.2 °F 64.4 °F 94% 29.95 in 5.0 mi SSE 6.9 mph - 0.00 in   Overcast
7:54 AM 66.9 °F 64.9 °F 93% 29.94 in 5.0 mi SSE 6.9 mph - 0.00 in   Overcast
8:24 AM 66.2 °F 64.4 °F 94% 29.96 in 2.0 mi SE 6.9 mph - 0.01 in Rain Light Rain
8:37 AM 66.2 °F 64.4 °F 94% 29.96 in 2.0 mi SE 6.9 mph - 0.01 in   Light Drizzle
8:48 AM 66.2 °F 64.4 °F 94% 29.96 in 3.0 mi SSE 9.2 mph - 0.01 in Rain Light Rain
8:54 AM 66.9 °F 64.9 °F 93% 29.95 in 1.0 mi SSE 10.4 mph - 0.01 in Rain Light Rain
9:09 AM 68.0 °F 66.2 °F 94% 29.95 in 2.0 mi SSE 10.4 mph - 0.02 in Rain Light Rain
9:54 AM 68.0 °F 66.0 °F 93% 29.94 in 2.0 mi SSE 10.4 mph - 0.02 in   Light Drizzle
10:41 AM 69.8 °F 66.2 °F 88% 29.93 in 6.0 mi South 16.1 mph 20.7 mph 0.00 in   Light Drizzle
10:49 AM 69.8 °F 66.2 °F 88% 29.93 in 6.0 mi South 18.4 mph 25.3 mph 0.00 in   Light Drizzle
10:54 AM 69.1 °F 66.9 °F 93% 29.91 in 7.0 mi South 16.1 mph 25.3 mph 0.00 in   Overcast
11:24 AM 69.8 °F 66.2 °F 88% 29.91 in 1.5 mi South 16.1 mph - 0.01 in Rain Light Rain
11:35 AM 69.8 °F 66.2 °F 88% 29.91 in 1.5 mi South 19.6 mph 25.3 mph 0.12 in Rain Heavy Rain
11:54 AM 68.0 °F 64.4 °F 88% 29.90 in 2.0 mi SSW 15.0 mph 29.9 mph N/A Rain Light Rain
11:57 AM 69.8 °F 66.2 °F 88% 29.90 in 7.0 mi SSW 20.7 mph 26.5 mph 0.00 in Rain Light Rain
12:54 PM 70.0 °F 66.0 °F 87% 29.86 in 10.0 mi South 15.0 mph 21.9 mph 0.01 in   Overcast
1:54 PM 71.1 °F 66.0 °F 84% 29.85 in 10.0 mi South 19.6 mph 25.3 mph N/A   Overcast
2:54 PM 72.0 °F 64.9 °F 78% 29.83 in 10.0 mi South 17.3 mph 24.2 mph N/A   Overcast
3:00 PM 71.6 °F 64.4 °F 78% 29.84 in 10.0 mi South 19.6 mph 25.3 mph N/A   Overcast
3:25 PM 71.6 °F 64.4 °F 78% 29.83 in 10.0 mi South 18.4 mph 25.3 mph N/A   Overcast
3:54 PM 73.0 °F 64.0 °F 73% 29.82 in 10.0 mi South 19.6 mph 28.8 mph N/A   Overcast
3:57 PM 71.6 °F 64.4 °F 78% 29.82 in 10.0 mi South 17.3 mph 28.8 mph N/A   Overcast
4:54 PM 71.1 °F 64.0 °F 78% 29.80 in 10.0 mi South 12.7 mph - N/A   Overcast
5:54 PM 71.1 °F 63.0 °F 75% 29.77 in 10.0 mi South 11.5 mph 20.7 mph N/A   Mostly Cloudy
6:54 PM 71.1 °F 63.0 °F 75% 29.80 in 10.0 mi SSW 12.7 mph - N/A   Mostly Cloudy
7:21 PM 69.8 °F 62.6 °F 78% 29.81 in 10.0 mi South 12.7 mph - N/A   Overcast
7:42 PM 71.6 °F 62.6 °F 73% 29.79 in 10.0 mi South 15.0 mph - N/A   Mostly Cloudy
7:54 PM 71.1 °F 63.0 °F 75% 29.78 in 10.0 mi South 13.8 mph - N/A   Overcast
8:19 PM 71.6 °F 62.6 °F 73% 29.79 in 10.0 mi South 12.7 mph 21.9 mph N/A   Overcast
8:54 PM 71.1 °F 63.0 °F 75% 29.76 in 10.0 mi South 13.8 mph - N/A   Overcast
9:15 PM 71.6 °F 62.6 °F 73% 29.78 in 10.0 mi South 11.5 mph 20.7 mph N/A   Overcast
9:44 PM 69.8 °F 62.6 °F 78% 29.77 in 10.0 mi South 12.7 mph - N/A   Overcast
9:54 PM 70.0 °F 63.0 °F 78% 29.75 in 10.0 mi South 15.0 mph - N/A   Overcast
10:35 PM 69.8 °F 62.6 °F 78% 29.76 in 10.0 mi South 16.1 mph - N/A   Overcast
10:54 PM 70.0 °F 63.0 °F 78% 29.75 in 10.0 mi South 17.3 mph 25.3 mph N/A   Overcast
11:24 PM 69.8 °F 62.6 °F 78% 29.76 in 10.0 mi South 18.4 mph - N/A   Overcast
11:54 PM 71.1 °F 63.0 °F 75% 29.74 in 10.0 mi South 17.3 mph 24.2 mph N/A   Overcast
11:58 PM 71.6 °F 62.6 °F 73% 29.75 in 10.0 mi South 19.6 mph 26.5 mph N/A Thunderstorm Thunderstorm